Content
SEND FEEDBACK

Daily
Averages
Monthly
Summary
United States of America

ST. LOUIS, MISSOURI


Home > North America > United States > Missouri
Elevation: 535 feet     Latitude: 38 45N     Longitude: 090 22W

WEATHER
 
SELECT A DAY
Number of Records: 196,649;   Date Range: 1/1/95 - 9/18/14
 
SHARE

PRINT THIS DATA

[ ← Previous Day ]
WEATHER ALMANAC - MARCH 24, 2013
[ Next Day → ]
[ °C ]   °F
Weather ElementAverageHighLow
Temperature32.9 °F41 °F (12:54 am)32 °F (10:32 am)
Dewpoint29.8 °F35.1 °F (12:54 am)28 °F (7:54 pm)
Humidity88.7 %93 % (2:32 am)79 % (12:54 am)
Barometer29.71 in29.88 in (12:54 am)29.59 in (1:01 pm)
Wind Speed14 mph21.9 mph (5:38 pm)
Wind Gust32.2 mph (7:35 pm)
Weather ElementAverage
Visibility1.4 mi
Wind DirectionWSW (237.1 °)

Weather ElementTotal
Precipitation1.02 in
Heating Degree Days28.5 (Base 65)
Averaged from 59 records on March 24, 2013
WEATHER CONDITIONS BREAKOUT
WIND DIRECTION BREAKOUT
WEATHER BY HOUR - MARCH 24, 2013
[ °C ]   °F
Local TimeTemperatureDewpointHumidityBarometerVisibilityWind DirectionWind SpeedGust SpeedPrecipitationEventsConditions
12:54 AM41.0 °F35.1 °F79 %29.88 in7.0 miNNE (30°)6.9 mph0.01 inRainLight Rain
1:54 AM37.9 °F34.0 °F86 %29.86 in4.0 miNE (50°)18.4 mph25.3 mph0.04 inRainLight Rain
2:12 AM37.4 °F33.8 °F87 %29.81 in4.0 miENE (60°)17.3 mph24.2 mphRainLight Rain
2:32 AM35.6 °F33.8 °F93 %29.80 in5.0 miNE (40°)12.7 mph0.01 inRainLight Rain
2:54 AM36.0 °F33.1 °F89 %29.80 in6.0 miNE (50°)12.7 mph0.02 inOvercast
3:54 AM35.1 °F30.9 °F85 %29.81 in8.0 miNE (50°)15.0 mphOvercast
4:54 AM34.0 °F32.0 °F92 %29.75 in3.0 miNE (50°)10.4 mph19.6 mph0.00 inOvercast
5:39 AM33.8 °F30.2 °F87 %29.71 in2.5 miENE (60°)15.0 mph0.00 inSnowLight Snow
5:46 AM33.8 °F30.2 °F87 %29.71 in3.0 miENE (60°)13.8 mph0.00 inSnowLight Snow
5:54 AM33.1 °F30.9 °F92 %29.73 in4.0 miENE (60°)16.1 mph0.00 inOvercast
6:49 AM33.8 °F30.2 °F87 %29.68 in2.0 miENE (60°)12.7 mph0.00 inSnowLight Snow
6:54 AM33.1 °F30.0 °F89 %29.68 in2.0 miENE (60°)13.8 mph0.00 inSnowLight Snow
7:12 AM33.8 °F30.2 °F87 %29.65 in3.0 miENE (70°)15.0 mph0.01 inSnowLight Snow
7:46 AM33.8 °F30.2 °F87 %29.62 in1.8 miNE (50°)13.8 mph0.02 inSnowLight Snow
7:54 AM33.1 °F30.9 °F92 %29.64 in1.5 miNE (40°)11.5 mph0.02 inSnowLight Snow
8:54 AM33.1 °F30.9 °F92 %29.66 in0.5 miNNW (340°)8.1 mph0.06 inFog-SnowSnow
9:00 AM33.8 °F30.2 °F87 %29.66 in0.2 miNW (320°)9.2 mph0.02 inFog-SnowSnow
9:24 AM33.8 °F30.2 °F87 %29.65 in0.2 miNorth (360°)8.1 mph0.07 inFog-Snow-ThunderstormThunderstorms and Snow
9:54 AM33.1 °F30.9 °F92 %29.66 in0.2 miNorth (350°)8.1 mph0.11 inFog-SnowSnow
10:32 AM32.0 °F30.2 °F93 %29.63 in0.2 miNorth (10°)11.5 mph0.06 inFog-SnowHeavy Snow
10:52 AM32.0 °F30.2 °F93 %29.62 in0.2 miNorth (360°)10.4 mph0.09 inFog-SnowSnow
10:54 AM32.0 °F30.0 °F92 %29.63 in0.2 miNorth (360°)11.5 mph0.09 inFog-SnowSnow
11:26 AM32.0 °F30.2 °F93 %29.61 in0.5 miNorth (10°)6.9 mph0.02 inFog-SnowSnow
11:40 AM32.0 °F30.2 °F93 %29.60 in0.2 miNorth (360°)9.2 mph0.03 inFog-SnowSnow
11:54 AM32.0 °F30.0 °F92 %29.62 in0.2 miNorth (360°)6.9 mph16.1 mph0.04 inFog-SnowHeavy Snow
12:01 PM32.0 °F30.2 °F93 %29.60 in0.2 miNorth (10°)9.2 mph0.01 inFog-SnowSnow
12:09 PM32.0 °F30.2 °F93 %29.60 in0.2 miNorth (360°)5.8 mph0.02 inFog-SnowSnow
12:24 PM32.0 °F28.4 °F87 %29.60 in0.5 miNorth (350°)8.1 mph0.03 inFog-SnowSnow
12:54 PM32.0 °F30.0 °F92 %29.62 in0.5 miNorth (360°)6.9 mph0.05 inFog-SnowSnow
1:01 PM32.0 °F30.2 °F93 %29.59 in0.2 miNorth (360°)8.1 mph0.00 inFog-SnowSnow
1:18 PM32.0 °F30.2 °F93 %29.59 in0.5 miNNW (340°)9.2 mph0.01 inFog-SnowSnow
1:54 PM32.0 °F30.0 °F92 %29.61 in0.2 miNNW (340°)17.3 mph23.0 mph0.01 inFog-SnowSnow
2:04 PM32.0 °F30.2 °F93 %29.59 in0.2 miNNW (330°)13.8 mph0.00 inFog-SnowSnow
2:54 PM32.0 °F28.9 °F88 %29.63 in0.2 miNNW (330°)12.7 mph0.02 inFog-SnowHeavy Snow
3:13 PM32.0 °F28.4 °F87 %29.62 in0.2 miNNW (330°)17.3 mph0.00 inFog-SnowHeavy Snow
3:44 PM32.0 °F30.2 °F93 %29.63 in0.2 miNNW (330°)16.1 mph0.01 inFog-SnowSnow
3:54 PM32.0 °F28.9 °F88 %29.65 in0.2 miNW (320°)17.3 mph23.0 mph0.01 inFog-SnowSnow
4:26 PM32.0 °F28.4 °F87 %29.65 in0.5 miNW (320°)17.3 mph27.6 mph0.01 inFog-SnowSnow
4:54 PM32.0 °F28.9 °F88 %29.69 in0.5 miNW (310°)20.7 mph27.6 mph0.01 inFog-SnowSnow
5:23 PM32.0 °F28.4 °F87 %29.69 in0.5 miWNW (300°)18.4 mph26.5 mph0.01 inFog-SnowSnow
5:38 PM32.0 °F28.4 °F87 %29.69 in0.5 miWNW (300°)21.9 mph29.9 mph0.01 inFog-SnowSnow
5:54 PM32.0 °F28.9 °F88 %29.73 in0.5 miWNW (300°)19.6 mph25.3 mph0.01 inFog-SnowSnow
6:02 PM32.0 °F28.4 °F87 %29.71 in0.5 miWNW (300°)18.4 mph25.3 mph0.00 inFog-SnowSnow
6:54 PM32.0 °F28.9 °F88 %29.76 in0.5 miWNW (300°)18.4 mph24.2 mph0.01 inFog-SnowLight Snow
7:27 PM32.0 °F28.4 °F87 %29.75 in1.0 miWNW (300°)18.4 mph26.5 mph0.00 inSnowLight Snow
7:35 PM32.0 °F28.4 °F87 %29.75 in1.2 miWNW (300°)19.6 mph32.2 mph0.01 inSnowLight Snow
7:44 PM32.0 °F28.4 °F87 %29.76 in1.2 miWNW (300°)19.6 mph28.8 mph0.01 inSnowLight Snow
7:54 PM32.0 °F28.0 °F85 %29.79 in1.2 miWNW (300°)17.3 mph25.3 mph0.01 inSnowLight Snow
8:00 PM32.0 °F28.4 °F87 %29.77 in1.5 miWNW (300°)18.4 mph0.00 inSnowLight Snow
8:52 PM32.0 °F28.4 °F87 %29.79 in1.5 miWNW (300°)17.3 mph26.5 mph0.00 inSnowLight Snow
8:54 PM32.0 °F28.0 °F85 %29.82 in1.5 miWNW (300°)17.3 mph26.5 mph0.00 inSnowLight Snow
9:12 PM32.0 °F28.4 °F87 %29.80 in1.2 miWNW (300°)16.1 mph27.6 mph0.00 inSnowLight Snow
9:54 PM32.0 °F28.0 °F85 %29.84 in1.5 miWNW (300°)16.1 mph0.00 inSnowLight Snow
10:22 PM32.0 °F28.4 °F87 %29.82 in1.2 miWNW (290°)15.0 mph25.3 mph0.01 inSnowLight Snow
10:49 PM32.0 °F28.4 °F87 %29.83 in1.2 miWNW (300°)17.3 mph23.0 mph0.01 inSnowLight Snow
10:54 PM32.0 °F28.9 °F88 %29.86 in1.2 miWNW (300°)12.7 mph23.0 mph0.01 inSnowLight Snow
11:03 PM32.0 °F28.4 °F87 %29.84 in1.2 miWNW (300°)18.4 mph24.2 mph0.00 inSnowLight Snow
11:14 PM32.0 °F28.4 °F87 %29.84 in1.2 miWNW (290°)13.8 mph0.00 inSnowLight Snow
11:54 PM32.0 °F28.0 °F85 %29.87 in1.2 miWNW (300°)15.0 mph0.01 inSnowLight Snow
Hourly data recorded from KSUS, located miles away from St. Louis, Missouri







STORIES FROM OUR PARTNERS